Flag for U.S.A. Weather past 2 weeks in Pensacola, Florida, U.S.A.

Now
75 °F

Scattered clouds.


Feels Like: 76 °F
Forecast: 60 / 72 °F
Wind: 9 mph from South

Location: Pensacola Regional Airport

Current Time: Dec 28, 2014 at 2:56:41 PM

Latest Report: Dec 28, 2014 at 1:53 PM


Visibility: 10 mi

Pressure: 30.02 "Hg

Humidity: 74%

Dew point: 66 °F

Location of PensacolaLocation

Historic Weather in Pensacola — Graph

°F

Pensacola temperature yesterday

Maximum temperature yesterday: 62 °F (at 12:53 PM)
Minimum temperature yesterday: 53 °F (at 6:53 AM)
Average temperature yesterday: 58 °F

Past Weeks' High & Low Weather Summary

 TemperatureHumidityPressure
High76 °F (Dec 28, 12:53 PM)100% (Dec 15, 1:53 AM)30.30 "Hg (Dec 15, 1:53 AM)
Low38 °F (Dec 25, 6:53 AM)25% (Dec 16, 2:53 PM)29.59 "Hg (Dec 24, 1:03 AM)
Average55 °F82%30.08 "Hg
* Reported Dec 13 12:53 PM — Dec 28 12:53 PM, Pensacola, Weather by CustomWeather, © 2014

Note: Actual official high and low records may vary slightly from our data, if they occured in-between our weather recording intervals... More about our weather records

Advertising

Pensacola weather history for previous 24 hours

 ConditionsComfort  
Time TempWeatherWind HumidityBarometerVisibility
12:53 PM
Dec 28
76 °FPassing clouds.6 mph72%30.03 "Hg10 mi
11:53 AM74 °FScattered clouds.7 mph79%30.06 "Hg10 mi
11:00 AM73 °FMostly cloudy.10 mph84%30.09 "Hg10 mi
9:53 AM71 °FMostly cloudy.7 mph93%30.11 "Hg8 mi
8:53 AM70 °FMostly cloudy.8 mph93%30.11 "Hg8 mi
7:59 AM69 °FRain. Fog.8 mph93%30.10 "Hg2 mi
7:53 AM69 °FFog.9 mph93%30.11 "Hg6 mi
6:53 AM69 °FMore clouds than sun.8 mph93%30.09 "Hg8 mi
5:53 AM68 °FLight rain. More clouds than sun.10 mph96%30.08 "Hg8 mi
4:53 AM68 °FFog.9 mph96%30.07 "Hg5 mi
3:53 AM66 °FFog.7 mph96%30.07 "Hg6 mi
2:53 AM65 °FLow clouds.12 mph91%30.08 "Hg10 mi
2:01 AM64 °FLow clouds.10 mph90%30.08 "Hg10 mi
12:53 AM62 °FOvercast.13 mph90%30.09 "Hg10 mi
11:53 PM
Dec 27
62 °FOvercast.13 mph83%30.11 "Hg10 mi
10:53 PM61 °FMostly cloudy.9 mph83%30.14 "Hg10 mi
9:53 PM59 °FPassing clouds.9 mph90%30.15 "Hg10 mi
8:53 PM60 °FOvercast.10 mph83%30.17 "Hg10 mi
7:53 PM58 °FMostly cloudy.7 mph90%30.16 "Hg10 mi
7:00 PM58 °FOvercast.8 mph93%30.16 "Hg10 mi
5:53 PM58 °FLow clouds.8 mph93%30.17 "Hg10 mi
4:53 PM58 °FMostly cloudy.8 mph93%30.16 "Hg10 mi
3:53 PM59 °FLight rain. Fog.8 mph93%30.16 "Hg4 mi
2:56 PM60 °FThundershowers. Fog.6 mph96%30.17 "Hg4 mi
Weather by CustomWeather, © 2014

See weather overviewHow to use our weather pages